CALSPHERE 1 1 900U 64063C 25186.53842309 .00000496 00000-0 50069-3 0 9996 2 900 90.2154 63.8113 0023047 263.3633 167.6839 13.76104245 23734 CALSPHERE 2 1 00902U 64063E 25185.92523703 .00000052 00000-0 65325-4 0 9994 2 00902 90.2305 67.6571 0019388 150.0866 221.3950 13.52865750809314 LCS 1 1 01361U 65034C 25185.90886343 .00000019 00000-0 14296-2 0 9995 2 01361 32.1422 281.5949 0012914 331.8622 28.1177 9.89308869175499 TEMPSAT 1 1 01512U 65065E 25185.84689707 .00000037 00000-0 54927-4 0 9992 2 01512 89.9752 212.8997 0070895 142.7675 30.4883 13.33566932913752 CALSPHERE 4(A) 1 1520U 65065H 25186.52494928 .00000077 00000-0 12986-3 0 9998 2 1520 89.9228 125.5696 0070115 3.8380 48.5982 13.36203414916827 OPS 5712 (P/L 160) 1 2826U 67053A 25186.23049035 .00006337 00000-0 10458-2 0 9996 2 2826 69.9184 164.1701 0003902 215.2699 144.8188 14.70857240 15586 OPS 5712 (P/L 153) 1 2874U 67053H 25186.31092029 .00000022 00000-0 54088-4 0 9993 2 2874 69.9734 138.7642 0009961 282.5140 77.4851 13.96754259958824 SURCAL 150B 1 2909U 67053J 25186.47571873 .00067319 00000-0 24625-2 0 9992 2 2909 69.9222 56.7315 0011435 192.3666 167.7229 15.27646289 29045 RIGIDSPHERE 2 (LCS 4) 1 05398U 71067E 25185.92394578 .00000477 00000-0 15151-3 0 9998 2 05398 87.6179 75.2301 0058627 306.2636 53.3154 14.37224592823998